Location: Invercargill
(46.4000°S, 168.3500°E)
Time: 06:00:46
(UTC+12:00)

COSMOS 2428 - Pass Details

Date: 24 January 2019
Orbit: 843 x 858 km, 71.0° (Epoch: 22 April)

Event Time Altitude Azimuth Distance (km) Brightness Sun altitude
Exits shadow 23:03:09 18° 54° (NE) 1,978 4.0 -13.4°
Maximum altitude 23:05:02 21° 80° (E) 1,829 4.0 -13.6°
Drops below altitude 10° 23:09:16 10° 127° (SE) 2,519 5.1 -14.1°
Sets 23:12:17 0° 142° (SE) 3,466 6.0 -14.4°
